This is the latest recevied weather packets stored in our database for station/object K9ZOG. If no packets are shown the sender has not sent any weather packets the latest 10 day(s).
| Time | Temp. | Humidity | Pressure | Rain* | Wind** | Luminosity | Snow |
|---|---|---|---|---|---|---|---|
| 1777487053 | 8.33° C | 94% | 1014 hPa | 1.02 mm | - | 72 W/m² | - |
| 1777486753 | 8.33° C | 93% | 1014 hPa | 1.02 mm | - | 83 W/m² | - |
| 1777486453 | 8.33° C | 93% | 1013.9 hPa | 1.52 mm | - | 125 W/m² | - |
| 1777486153 | 8.33° C | 93% | 1013.9 hPa | 1.52 mm | - | 131 W/m² | - |
| 1777485853 | 8.89° C | 93% | 1013.8 hPa | 1.52 mm | - | 91 W/m² | - |
| 1777485557 | 8.89° C | 93% | 1013.9 hPa | 1.78 mm | - | 92 W/m² | - |
| 1777485253 | 8.89° C | 94% | 1013.9 hPa | 2.03 mm | - | 123 W/m² | - |
| 1777484953 | 8.89° C | 94% | 1013.8 hPa | 2.03 mm | - | 155 W/m² | - |
| 1777484653 | 8.89° C | 93% | 1013.7 hPa | 2.29 mm | - | 195 W/m² | - |
| 1777484353 | 8.89° C | 93% | 1013.7 hPa | 2.29 mm | - | 188 W/m² | - |
| 1777484053 | 9.44° C | 94% | 1013.9 hPa | 2.29 mm | - | 172 W/m² | - |
| 1777483753 | 9.44° C | 94% | 1013.8 hPa | 3.05 mm | - | 153 W/m² | - |
| 1777483453 | 9.44° C | 94% | 1013.8 hPa | 3.3 mm | - | 152 W/m² | - |
| 1777483153 | 9.44° C | 94% | 1013.8 hPa | 3.3 mm | - | 161 W/m² | - |
| 1777482852 | 9.44° C | 94% | 1013.9 hPa | 3.81 mm | - | 199 W/m² | - |
| 1777482552 | 9.44° C | 94% | 1014 hPa | 3.56 mm | - | 203 W/m² | - |
| 1777482253 | 10° C | 94% | 1014 hPa | 3.56 mm | - | 176 W/m² | - |
| 1777481955 | 10° C | 93% | 1014.1 hPa | 3.56 mm | - | 159 W/m² | - |
| 1777481653 | 10° C | 93% | 1014.2 hPa | 3.3 mm | - | 129 W/m² | - |
| 1777481353 | 10° C | 93% | 1014.2 hPa | 3.3 mm | - | 126 W/m² | - |
| 1777481053 | 10° C | 93% | 1014.2 hPa | 3.05 mm | - | 106 W/m² | - |
| 1777480754 | 10° C | 92% | 1014.2 hPa | 3.05 mm | - | 85 W/m² | - |
| 1777480453 | 10° C | 92% | 1014.2 hPa | 3.05 mm | - | 76 W/m² | - |
| 1777480154 | 10° C | 92% | 1014.3 hPa | 2.29 mm | - | 90 W/m² | - |
| 1777479853 | 10° C | 92% | 1014.3 hPa | 1.78 mm | - | 83 W/m² | - |
* Rain latest hour (hover to see other rain measurements)
** Current wind speed in m/s (hover to see current wind gust speed)